Regional Weather Roundup
Issued by NWS

Home | Current Version | Previous Version | Graphics & Text | Print | Product List | Glossary On
Versions: 1 2 3 4 5 6 7 8 9 10 11 12 13 14 15 16 17 18 19 20 21 22 23 24 25 26 27
000
ASUS45 KBOU 291607
RWRCO

WEATHER ROUNDUP FOR COLORADO
NATIONAL WEATHER SERVICE DENVER/BOULDER CO
1000 AM MDT MON AUG 29 2016

NOTE: "FAIR" INDICATES FEW OR NO CLOUDS BELOW 12000 FEET WITH NO
SIGNIFICANT WEATHER AND/OR OBSTRUCTIONS TO VISIBILITY.

COZ001>005-013-030-031-291700-
...NORTHWEST COLORADO...

CITY           SKY/WX    TMP DP  RH WIND       PRES   REMARKS
CRAIG          FAIR      64  40  41 CALM      30.37F
HAYDEN         FAIR      61  37  41 E6        30.39S
MEEKER         FAIR      61  41  47 CALM      30.38S
MOUNT WERNER   NOT AVBL
STEAMBOAT SPGS FAIR      51  38  61 CALM      30.42S
WALDEN         FAIR      52  37  58 CALM      30.51F
$$

COZ006>008-011-291700-
...WEST CENTRAL VALLEYS...

CITY           SKY/WX    TMP DP  RH WIND       PRES   REMARKS
GRAND JUNCTION FAIR      70  48  45 CALM      30.29R
MONTROSE       FAIR      61  44  53 SE5       30.37S
EAGLE          SUNNY     55  46  71 CALM      30.45F
RIFLE          FAIR      59  50  72 CALM      30.35S
DELTA          FAIR      66  45  47 CALM      30.34S
NUCLA          FAIR     N/A N/A N/A SE6       30.39S
$$

COZ017>023-064>068-291700-
...SOUTHWEST COLORADO...

CITY           SKY/WX    TMP DP  RH WIND       PRES   REMARKS
DURANGO        FAIR      64  42  44 VRB5      30.37R
CORTEZ         FAIR      65  45  48 CALM      30.34S
PAGOSA SPRINGS FAIR      59  44  57 CALM      30.44R
TELLURIDE      FAIR      57  40  53 W5        30.53S
WOLF CREEK PAS FAIR      43  34  70 SW5       30.69R
$$

COZ009-010-012-014-032>034-037-058>063-291700-
...CENTRAL COLORADO...

CITY           SKY/WX    TMP DP  RH WIND       PRES   REMARKS
ASPEN          FAIR      56  41  57 CALM      30.45S
BUENA VISTA    CLOUDY    53  47  79 NE3       30.50R
COPPER MTN     LGT RAIN  45  32  61 SE16      30.69S
BERTHOUD PASS  CLOUDY    37  27  65 E15G24    30.75R
COTTONWOOD PAS CLOUDY    48  43  81 W5        30.58S
GUNNISON       FAIR      52  43  71 W3        30.50R
KREMMLING      FAIR      50  39  66 CALM      30.50S
LEADVILLE      LGT RAIN  44  41  89 NW3       30.58R
MONARCH PASS   PTSUNNY   45  39  81 NE6       30.78R
SALIDA         FAIR      59  48  65 SW5       30.54S
SUNLIGHT       FAIR      50  41  71 CALM      30.65R
WILKERSON PASS PTSUNNY   45  39  81 E7G17     30.68R
$$

COZ069>075-291700-
...SAN LUIS VALLEY/SANGRE DE CRISTO MOUNTAINS...

CITY           SKY/WX    TMP DP  RH WIND       PRES   REMARKS
ALAMOSA        FAIR      58  48  69 E10       30.44S
LA VETA PASS   PTSUNNY   46  41  81 W3        30.58R
SAGUACHE       FAIR      59  45  58 S5        30.46S
$$

COZ035-036-038>040-291700-
...NORTHERN COLORADO FRONT RANGE...

CITY           SKY/WX    TMP DP  RH WIND       PRES   REMARKS
DENVER INTL AP PTSUNNY   76  42  29 VRB3      30.31R
DMNS CITY PARK   N/A     75  46  35 SW3       30.31R
AURORA         PTSUNNY   74  45  35 W7        30.33R
FRONT RANGE AP PTSUNNY   77  41  27 N3        30.32R
ERIE MUNI ARPT FAIR      69  45  42 NW5       30.30S
BOULDER MUN AP FAIR      68  45  42 CALM      30.31S
CENTENNIAL     PTSUNNY   74  41  30 VRB6      30.33R
BROOMFIELD     PTSUNNY   68  45  42 NW5       30.34R
FORT COLLINS   FAIR      70  43  37 NE5       30.29R
LONGMONT       FAIR      71  47  42 CALM      30.32R
$$

COZ041-046-047-076>085-087-088-291700-
...PIKES PEAK/PALMER DIVIDE AND SOUTHERN FOOTHILLS...

CITY           SKY/WX    TMP DP  RH WIND       PRES   REMARKS
COLO. SPRINGS  PTSUNNY   70  41  34 E7        30.38R
A. F. ACADEMY  CLOUDY    69  41  36 CALM      30.38R
SCHRIEVER AFB  NOT AVBL
ELLICOTT       NOT AVBL
FALCON         FAIR      71  42  35 NE8       30.43R
FORT CARSON    CLOUDY    71  49  47 N6        30.34R
LIMON          FAIR      74  49  41 NE13      30.32R
MONUMENT HILL  FAIR      64  41  42 NE7       30.43R
TRINIDAD       PTSUNNY   64  48  56 W14       30.34R
$$

COZ042>045-048>051-090-091-291700-
...NORTHEAST COLORADO...

CITY           SKY/WX    TMP DP  RH WIND       PRES   REMARKS
GREELEY ARPT   FAIR      72  52  49 CALM      30.28S
AKRON          FAIR      76  46  34 N6        30.29R
BURLINGTON     PTSUNNY   67  59  75 SE14      30.28R
WRAY           NOT AVBL
STERLING       FAIR      72  52  49 CALM      30.24S
HOLYOKE        FAIR      73  61  64 S5        30.25S
FORT MORGAN    FAIR      75  50  41 CALM      30.27S
$$

COZ086-089-092>099-291700-
...SOUTHEAST COLORADO...

CITY           SKY/WX    TMP DP  RH WIND       PRES   REMARKS
PUEBLO         FAIR      71  50  47 NW5       30.28R
LA JUNTA       PTSUNNY   68  52  56 N7        30.26R
LAMAR          CLOUDY    65  60  84 NE5       30.23S
SPRINGFIELD      N/A     65  54  67 N7        30.27R
$$




USA.gov is the U.S. government's official web portal to all federal, state and local government web resources and services.